This is the latest recevied weather packets stored in our database for station/object M0TUM-1. If no packets are shown the sender has not sent any weather packets the latest 1 day(s).
| Time | Temp. | Humidity | Pressure | Rain* | Wind** | Luminosity | Snow |
|---|---|---|---|---|---|---|---|
| 1778044965 | 7.22° C | 89% | 1011.4 hPa | 0 mm | 0.89 m/s, 354° | 19 W/m² | - |
| 1778044662 | 7.22° C | 89% | 1011.5 hPa | 0 mm | 0.89 m/s, 280° | 26 W/m² | - |
| 1778044358 | 7.22° C | 89% | 1011.5 hPa | 0 mm | 0.89 m/s, 317° | 27 W/m² | - |
| 1778044056 | 6.67° C | 89% | 1011.6 hPa | 0 mm | 1.34 m/s, 6° | 15 W/m² | - |
| 1778043753 | 6.67° C | 89% | 1011.7 hPa | 0 mm | 0.45 m/s, 265° | 11 W/m² | - |
| 1778043449 | 6.67° C | 89% | 1011.4 hPa | 0 mm | 0.89 m/s, 255° | 12 W/m² | - |
| 1778043146 | 6.67° C | 89% | 1011.5 hPa | 0 mm | 1.34 m/s, 287° | 9 W/m² | - |
| 1778042844 | 6.67° C | 89% | 1011.6 hPa | 0 mm | 0.89 m/s, 265° | 9 W/m² | - |
| 1778042541 | 6.11° C | 88% | 1011.4 hPa | 0 mm | 0.45 m/s, 235° | 10 W/m² | - |
| 1778042238 | 6.11° C | 88% | 1011.5 hPa | 0 mm | 0.45 m/s, 230° | 8 W/m² | - |
| 1778041936 | 6.11° C | 88% | 1011.5 hPa | 0 mm | 0.45 m/s, 266° | 6 W/m² | - |
| 1778041635 | 5.56° C | 88% | 1011.3 hPa | 0 mm | 0.89 m/s, 287° | 3 W/m² | - |
| 1778041332 | 5.56° C | 88% | 1011.4 hPa | 0 mm | 0.89 m/s, 287° | 3 W/m² | - |
| 1778041031 | 5.56° C | 88% | 1011.4 hPa | 0 mm | 0.45 m/s, 282° | 1 W/m² | - |
| 1778040728 | 5.56° C | 88% | 1011.4 hPa | 0 mm | 0.89 m/s, 267° | 0 W/m² | - |
| 1778040425 | 5.56° C | 88% | 1011.6 hPa | 0 mm | 0.45 m/s, 241° | 0 W/m² | - |
| 1778040121 | 5.56° C | 88% | 1011.5 hPa | 0 mm | 0.45 m/s, 271° | 0 W/m² | - |
| 1778039818 | 5.56° C | 88% | 1011.4 hPa | 0 mm | 0.45 m/s, 271° | 0 W/m² | - |
| 1778039515 | 5.56° C | 88% | 1011.6 hPa | 0 mm | 0.45 m/s, 245° | 0 W/m² | - |
| 1778039212 | 5.56° C | 88% | 1011.7 hPa | 0 mm | 1.34 m/s, 294° | 0 W/m² | - |
| 1778038909 | 5.56° C | 88% | 1011.7 hPa | 0 mm | 0.89 m/s, 261° | 0 W/m² | - |
| 1778038607 | 5.56° C | 87% | 1011.8 hPa | 0 mm | 0.89 m/s, 278° | 0 W/m² | - |
| 1778038303 | 5.56° C | 87% | 1011.9 hPa | 0 mm | 0.89 m/s, 281° | 0 W/m² | - |
| 1778038001 | 6.11° C | 87% | 1011.7 hPa | 0 mm | 0.89 m/s, 279° | 0 W/m² | - |
| 1778037697 | 6.11° C | 87% | 1011.7 hPa | 0 mm | 0.89 m/s, 290° | 0 W/m² | - |
* Rain latest hour (hover to see other rain measurements)
** Current wind speed in m/s (hover to see current wind gust speed)